Location: Buckeye Ditch
(40.9104°N, 122.9517°W)
Time: 13:26:28
(UTC+00:00)

Tiros 1 despin weight - Pass Details

Date: 20 May 2025
Orbit: 563 x 601 km, 48.2° (Epoch: 22 June)

Event Time Altitude Azimuth Distance (km) Brightness Sun altitude
Rises 14:50:23 0° 297° (WNW) 2,842 ? 20.8°
Reaches altitude 10° 14:52:46 10° 304° (NW) 1,941 ? 21.2°
Maximum altitude 14:57:02 44° 18° (NNE) 837 ? 22.0°
Drops below altitude 10° 15:01:18 10° 90° (E) 1,939 ? 22.8°
Sets 15:03:41 0° 97° (E) 2,839 ? 23.3°
